contact:dominique.lefevre@mio.osupytheas.fr, maurice.libes@osupytheas.fr, didier.mallarino@osupytheas.fr
Project:EMSO http://www.emso-fr.org/EMSO-France
Depth: 2436.0 m
Title:EMSO Ligure Ouest : Data MII capteur AQUADOPP
Date,Latitude,Longitude,X_East,Y_North,Z_Up,Amplitude_X,Amplitude_Y,Amplitude_Z,Batterie,SoundSpeed,Heading,Pitch,Roll,Pressure,TIS,Speed,Direction
, degrees North, degrees East, m.s-1, m.s-1,m.s-1, 1, 1, 1, Volt, m.s-1, degree, degree, degree, dbar, degree_C, m.s-1, degree
2020-05-24T00:04:03,42.805,6.029,-0.009,-0.004,-0.019,105.0,109.0,102.0,13.4,1505.3,325.8,-0.7,1.8,2470.401,13.32,0.009,246.0
2020-05-24T00:07:03,42.805,6.029,0.004,-0.02,0.006,105.0,107.0,103.0,13.3,1505.3,323.2,-0.7,1.8,2470.381,13.33,0.02,168.7
2020-05-24T00:10:03,42.805,6.029,-0.033,-0.016,-0.078,106.0,108.0,101.0,13.4,1505.3,323.2,-0.7,1.8,2470.359,13.33,0.036,244.1
2020-05-24T00:13:03,42.805,6.029,-0.049,-0.005,-0.064,104.0,108.0,103.0,13.3,1505.3,323.9,-0.7,1.8,2470.383,13.33,0.049,264.2
2020-05-24T00:16:03,42.805,6.029,-0.08,-0.008,-0.092,106.0,107.0,102.0,13.4,1505.3,325.5,-0.7,1.8,2470.395,13.33,0.08,264.3
2020-05-24T00:19:03,42.805,6.029,-0.077,-0.002,-0.086,105.0,107.0,102.0,13.3,1505.4,328.0,-0.7,1.8,2470.365,13.34,0.077,268.5
2020-05-24T00:22:03,42.805,6.029,-0.045,-0.003,-0.066,105.0,106.0,103.0,13.4,1505.4,327.0,-0.7,1.9,2470.343,13.34,0.045,266.2
2020-05-24T00:25:03,42.805,6.029,-0.031,0.0,0.009,105.0,107.0,102.0,13.4,1505.4,324.6,-0.7,1.8,2470.36,13.34,0.03,270.0
2020-05-24T00:31:03,42.805,6.029,-0.048,-0.016,-0.048,105.0,108.0,102.0,13.4,1505.3,326.9,-0.7,1.8,2470.392,13.32,0.05,251.6
2020-05-24T00:34:03,42.805,6.029,-0.065,-0.005,-0.048,105.0,108.0,102.0,13.3,1505.3,326.7,-0.7,1.8,2470.415,13.33,0.065,265.6
2020-05-24T00:37:03,42.805,6.029,-0.062,0.001,-0.085,105.0,108.0,102.0,13.3,1505.3,323.8,-0.7,1.8,2470.361,13.33,0.062,270.9
2020-05-24T00:40:03,42.805,6.029,-0.077,-0.006,-0.106,105.0,108.0,102.0,13.4,1505.3,327.6,-0.7,1.8,2470.36,13.33,0.077,265.5
2020-05-24T00:43:03,42.805,6.029,-0.075,-0.024,-0.108,105.0,108.0,103.0,13.3,1505.4,325.5,-0.7,1.8,2470.347,13.34,0.078,252.3
2020-05-24T00:46:03,42.805,6.029,-0.065,0.013,-0.067,103.0,109.0,103.0,13.4,1505.4,326.9,-0.7,1.8,2470.356,13.34,0.066,281.3
2020-05-24T00:49:03,42.805,6.029,-0.042,-0.003,-0.087,103.0,107.0,102.0,13.3,1505.4,325.0,-0.7,1.8,2470.367,13.34,0.042,265.9
2020-05-24T00:52:03,42.805,6.029,-0.051,-0.003,-0.076,104.0,107.0,102.0,13.3,1505.4,326.9,-0.7,1.8,2470.353,13.34,0.051,266.6
2020-05-24T00:55:03,42.805,6.029,-0.091,-0.006,-0.092,106.0,107.0,101.0,13.4,1505.4,324.1,-0.7,1.9,2470.354,13.34,0.091,266.2
2020-05-24T00:58:03,42.805,6.029,-0.048,-0.013,-0.084,104.0,109.0,102.0,13.4,1505.4,326.7,-0.7,1.8,2470.334,13.34,0.049,254.8
2020-05-24T01:04:03,42.805,6.029,-0.043,-0.003,-0.093,106.0,109.0,103.0,13.3,1505.3,327.2,-0.7,1.8,2470.362,13.32,0.043,266.0
2020-05-24T01:07:03,42.805,6.029,-0.065,-0.01,-0.101,104.0,108.0,102.0,13.4,1505.3,326.5,-0.7,1.8,2470.355,13.32,0.065,261.3
2020-05-24T01:10:03,42.805,6.029,-0.088,-0.002,-0.089,104.0,108.0,102.0,13.4,1505.3,322.7,-0.7,1.8,2470.4,13.33,0.088,268.7
2020-05-24T01:13:03,42.805,6.029,-0.075,-0.008,-0.105,105.0,107.0,102.0,13.4,1505.3,324.7,-0.7,1.8,2470.361,13.33,0.075,263.9
2020-05-24T01:16:03,42.805,6.029,-0.063,-0.014,-0.076,104.0,106.0,103.0,13.4,1505.3,323.0,-0.7,1.8,2470.306,13.33,0.064,257.5
2020-05-24T01:19:03,42.805,6.029,-0.076,-0.03,-0.084,104.0,108.0,101.0,13.4,1505.4,324.8,-0.8,1.8,2470.326,13.34,0.081,248.5
2020-05-24T01:22:03,42.805,6.029,-0.054,-0.018,-0.078,104.0,106.0,102.0,13.3,1505.4,323.2,-0.7,1.8,2470.351,13.34,0.056,251.6
2020-05-24T01:25:03,42.805,6.029,-0.062,-0.007,-0.085,104.0,107.0,102.0,13.4,1505.4,326.1,-0.7,1.8,2470.261,13.34,0.062,263.6
2020-05-24T01:28:03,42.805,6.029,-0.052,-0.01,-0.064,105.0,108.0,102.0,13.3,1505.4,323.3,-0.7,1.8,2470.33,13.34,0.052,259.1
2020-05-24T01:31:03,42.805,6.029,-0.046,0.003,-0.074,105.0,107.0,101.0,13.4,1505.4,326.7,-0.7,1.8,2470.308,13.34,0.046,273.7
2020-05-24T01:34:03,42.805,6.029,-0.061,0.011,-0.064,105.0,107.0,101.0,13.3,1505.4,328.0,-0.7,1.8,2470.353,13.34,0.061,280.2
2020-05-24T01:37:03,42.805,6.029,-0.028,-0.008,-0.068,105.0,107.0,102.0,13.3,1505.4,323.5,-0.7,1.8,2470.294,13.34,0.029,254.1
2020-05-24T01:40:03,42.805,6.029,-0.039,0.001,-0.054,105.0,107.0,102.0,13.4,1505.4,323.9,-0.7,1.9,2470.287,13.34,0.039,271.5
2020-05-24T01:43:03,42.805,6.029,-0.079,-0.009,-0.104,104.0,107.0,102.0,13.4,1505.4,325.1,-0.7,1.8,2470.332,13.34,0.079,263.5
2020-05-24T01:46:03,42.805,6.029,-0.067,0.001,-0.107,105.0,107.0,102.0,13.3,1505.4,326.3,-0.7,1.8,2470.311,13.34,0.067,270.9
2020-05-24T01:49:03,42.805,6.029,-0.086,-0.008,-0.105,105.0,107.0,102.0,13.3,1505.3,328.3,-0.7,1.9,2470.283,13.33,0.086,264.7
2020-05-24T01:52:03,42.805,6.029,-0.094,-0.004,-0.089,104.0,107.0,102.0,13.3,1505.3,328.3,-0.7,1.8,2470.3,13.33,0.094,267.6
2020-05-24T01:55:03,42.805,6.029,-0.045,-0.014,-0.086,105.0,107.0,103.0,13.3,1505.3,328.0,-0.7,1.8,2470.289,13.33,0.047,252.7
2020-05-24T01:58:03,42.805,6.029,-0.039,-0.028,-0.12,104.0,108.0,103.0,13.4,1505.3,326.3,-0.7,1.8,2470.317,13.33,0.048,234.3
2020-05-24T02:04:03,42.805,6.029,-0.061,0.004,-0.104,105.0,109.0,101.0,13.4,1505.3,325.4,-0.7,1.8,2470.325,13.31,0.061,273.7
2020-05-24T02:07:03,42.805,6.029,-0.051,0.0,-0.099,105.0,107.0,102.0,13.3,1505.3,326.0,-0.7,1.8,2470.306,13.32,0.051,270.0
2020-05-24T02:10:03,42.805,6.029,-0.018,-0.022,-0.067,105.0,107.0,102.0,13.3,1505.3,325.4,-0.7,1.8,2470.309,13.32,0.028,219.3
2020-05-24T02:13:03,42.805,6.029,0.009,-0.006,-0.014,104.0,106.0,102.0,13.4,1505.3,326.2,-0.7,1.8,2470.34,13.33,0.01,123.7
2020-05-24T02:16:03,42.805,6.029,-0.027,-0.006,-0.024,105.0,106.0,103.0,13.4,1505.3,326.9,-0.7,1.8,2470.32,13.33,0.027,257.5
2020-05-24T02:19:03,42.805,6.029,-0.015,0.009,-0.045,104.0,107.0,102.0,13.4,1505.3,326.5,-0.7,1.8,2470.346,13.33,0.017,301.0
2020-05-24T02:22:03,42.805,6.029,0.006,-0.006,-0.035,104.0,107.0,102.0,13.4,1505.3,324.3,-0.7,1.8,2470.376,13.33,0.008,135.0
2020-05-24T02:25:03,42.805,6.029,-0.022,-0.026,-0.024,106.0,107.0,103.0,13.3,1505.3,325.8,-0.7,1.8,2470.288,13.33,0.034,220.2
2020-05-24T02:28:03,42.805,6.029,-0.002,-0.006,-0.01,105.0,107.0,102.0,13.3,1505.3,325.3,-0.7,1.8,2470.325,13.33,0.006,198.4
2020-05-24T02:31:03,42.805,6.029,-0.02,-0.005,-0.003,106.0,107.0,103.0,13.3,1505.3,324.7,-0.6,1.8,2470.296,13.33,0.02,256.0
2020-05-24T02:34:03,42.805,6.029,-0.019,-0.015,-0.052,105.0,107.0,102.0,13.3,1505.3,325.8,-0.7,1.8,2470.272,13.33,0.024,231.7
2020-05-24T02:37:03,42.805,6.029,0.002,-0.001,-0.032,107.0,107.0,104.0,13.4,1505.3,326.0,-0.7,1.9,2470.305,13.33,0.002,116.6
2020-05-24T02:43:03,42.805,6.029,0.006,0.013,-0.006,105.0,107.0,103.0,13.3,1505.3,327.1,-0.7,1.8,2470.358,13.31,0.014,24.8
2020-05-24T02:46:03,42.805,6.029,-0.007,-0.015,-0.029,104.0,106.0,102.0,13.3,1505.3,326.7,-0.7,1.8,2470.343,13.32,0.016,205.0
2020-05-24T02:49:03,42.805,6.029,-0.009,-0.007,-0.055,105.0,106.0,104.0,13.3,1505.3,328.5,-0.7,1.8,2470.316,13.33,0.011,232.1
2020-05-24T02:52:03,42.805,6.029,-0.019,-0.005,-0.039,105.0,105.0,102.0,13.3,1505.3,325.7,-0.7,1.8,2470.296,13.33,0.019,255.3
2020-05-24T02:55:03,42.805,6.029,0.009,-0.012,-0.051,105.0,105.0,102.0,13.4,1505.3,328.1,-0.7,1.9,2470.369,13.33,0.015,143.1
2020-05-24T02:58:03,42.805,6.029,0.006,-0.036,-0.036,107.0,105.0,103.0,13.4,1505.3,325.4,-0.7,1.8,2470.278,13.33,0.036,170.5
2020-05-24T03:04:03,42.805,6.029,-0.048,-0.012,-0.031,103.0,106.0,103.0,13.3,1505.3,327.4,-0.7,1.8,2470.341,13.31,0.049,256.0
2020-05-24T03:07:03,42.805,6.029,-0.008,-0.019,-0.027,105.0,105.0,103.0,13.4,1505.3,327.4,-0.7,1.8,2470.309,13.32,0.02,202.8
2020-05-24T03:10:03,42.805,6.029,-0.007,-0.007,-0.007,106.0,106.0,103.0,13.4,1505.3,324.7,-0.7,1.9,2470.298,13.32,0.009,225.0
2020-05-24T03:13:03,42.805,6.029,0.013,-0.023,-0.054,104.0,105.0,102.0,13.3,1505.3,325.6,-0.7,1.8,2470.315,13.33,0.026,150.5
2020-05-24T03:16:03,42.805,6.029,-0.028,-0.021,-0.049,105.0,106.0,103.0,13.3,1505.3,324.5,-0.7,1.9,2470.295,13.33,0.035,233.1
2020-05-24T03:19:03,42.805,6.029,-0.015,-0.028,-0.038,106.0,107.0,102.0,13.4,1505.3,323.5,-0.7,1.9,2470.286,13.33,0.031,208.2
2020-05-24T03:22:03,42.805,6.029,0.023,0.002,-0.02,104.0,106.0,102.0,13.3,1505.3,324.5,-0.7,1.8,2470.285,13.33,0.023,85.0
2020-05-24T03:25:03,42.805,6.029,-0.015,-0.012,-0.013,105.0,106.0,101.0,13.3,1505.3,324.1,-0.7,1.9,2470.29,13.33,0.019,231.3
2020-05-24T03:28:03,42.805,6.029,0.0,-0.011,-0.017,105.0,106.0,102.0,13.3,1505.3,327.4,-0.7,1.8,2470.266,13.33,0.011,180.0
2020-05-24T03:31:03,42.805,6.029,0.003,0.0,0.011,105.0,106.0,103.0,13.3,1505.3,327.4,-0.7,1.8,2470.274,13.33,0.003,90.0
2020-05-24T03:34:03,42.805,6.029,0.006,-0.014,-0.024,105.0,105.0,101.0,13.4,1505.3,326.8,-0.7,1.8,2470.273,13.33,0.015,156.8
2020-05-24T03:37:03,42.805,6.029,0.002,-0.002,-0.003,105.0,105.0,101.0,13.4,1505.3,326.8,-0.7,1.9,2470.268,13.33,0.002,135.0
2020-05-24T03:40:03,42.805,6.029,-0.004,-0.018,-0.003,104.0,106.0,103.0,13.4,1505.3,323.6,-0.7,1.8,2470.263,13.33,0.018,192.5
2020-05-24T03:43:03,42.805,6.029,0.001,-0.006,-0.021,105.0,106.0,103.0,13.4,1505.3,327.5,-0.7,1.8,2470.264,13.33,0.006,170.5
2020-05-24T03:46:03,42.805,6.029,-0.01,0.01,-0.024,106.0,108.0,104.0,13.4,1505.3,325.0,-0.7,1.8,2470.277,13.33,0.014,315.0
2020-05-24T03:49:03,42.805,6.029,-0.033,0.013,-0.023,106.0,106.0,102.0,13.4,1505.3,326.1,-0.7,1.8,2470.297,13.33,0.035,291.5
2020-05-24T03:52:03,42.805,6.029,0.0,-0.011,-0.034,104.0,106.0,103.0,13.4,1505.3,324.8,-0.7,1.9,2470.259,13.33,0.011,180.0
2020-05-24T03:55:03,42.805,6.029,0.01,0.022,0.002,104.0,106.0,103.0,13.4,1505.3,326.6,-0.7,1.8,2470.266,13.33,0.024,24.4
2020-05-24T03:58:03,42.805,6.029,-0.017,-0.01,-0.042,105.0,107.0,103.0,13.3,1505.3,323.1,-0.7,1.8,2470.269,13.33,0.019,239.5
2020-05-24T04:04:03,42.805,6.029,-0.019,0.012,-0.023,105.0,108.0,104.0,13.3,1505.3,326.7,-0.7,1.8,2470.327,13.31,0.022,302.3
2020-05-24T04:07:03,42.805,6.029,-0.029,0.003,-0.039,104.0,106.0,103.0,13.4,1505.3,328.0,-0.7,1.9,2470.309,13.32,0.029,275.9
2020-05-24T04:10:03,42.805,6.029,0.0,-0.011,-0.03,104.0,107.0,102.0,13.4,1505.3,326.1,-0.7,1.8,2470.344,13.33,0.011,180.0
2020-05-24T04:13:03,42.805,6.029,0.004,0.015,-0.011,105.0,107.0,103.0,13.3,1505.3,327.8,-0.7,1.8,2470.314,13.33,0.015,14.9
2020-05-24T04:16:03,42.805,6.029,-0.004,0.0,0.0,105.0,107.0,103.0,13.4,1505.3,326.3,-0.7,1.8,2470.311,13.33,0.004,270.0
2020-05-24T04:19:03,42.805,6.029,-0.03,-0.009,0.0,104.0,107.0,103.0,13.4,1505.3,326.9,-0.7,1.8,2470.307,13.33,0.031,253.3
2020-05-24T04:22:03,42.805,6.029,-0.007,-0.015,-0.044,106.0,106.0,103.0,13.4,1505.3,323.2,-0.7,1.8,2470.34,13.33,0.016,205.0
2020-05-24T04:25:03,42.805,6.029,-0.018,-0.024,-0.012,105.0,106.0,103.0,13.4,1505.3,327.2,-0.7,1.8,2470.316,13.33,0.03,216.9
2020-05-24T04:28:03,42.805,6.029,0.0,-0.021,-0.023,104.0,107.0,102.0,13.4,1505.3,326.3,-0.7,1.8,2470.299,13.33,0.021,180.0
2020-05-24T04:31:03,42.805,6.029,-0.046,-0.015,-0.058,103.0,108.0,100.0,13.3,1505.3,324.9,-0.7,1.8,2470.338,13.33,0.048,251.9
2020-05-24T04:34:03,42.805,6.029,-0.02,-0.018,-0.021,104.0,107.0,101.0,13.4,1505.3,326.8,-0.7,1.8,2470.305,13.33,0.026,228.0
2020-05-24T04:37:03,42.805,6.029,-0.012,-0.013,-0.005,106.0,107.0,101.0,13.4,1505.3,326.7,-0.7,1.8,2470.324,13.33,0.017,222.7
2020-05-24T04:40:03,42.805,6.029,-0.055,-0.019,-0.057,105.0,107.0,102.0,13.4,1505.3,327.5,-0.7,1.8,2470.322,13.33,0.058,250.9
2020-05-24T04:43:03,42.805,6.029,-0.018,-0.018,-0.006,103.0,106.0,103.0,13.4,1505.3,325.4,-0.7,1.8,2470.306,13.33,0.025,225.0
2020-05-24T04:46:03,42.805,6.029,-0.008,-0.042,-0.008,105.0,105.0,102.0,13.3,1505.3,326.9,-0.7,1.8,2470.312,13.33,0.042,190.8
2020-05-24T04:49:03,42.805,6.029,-0.019,0.002,-0.03,104.0,106.0,102.0,13.4,1505.3,325.6,-0.7,1.9,2470.319,13.33,0.019,276.0
2020-05-24T04:52:03,42.805,6.029,0.002,-0.001,-0.023,105.0,107.0,102.0,13.4,1505.3,325.2,-0.7,1.9,2470.322,13.33,0.002,116.6
2020-05-24T04:55:03,42.805,6.029,-0.001,0.005,-0.039,104.0,105.0,102.0,13.3,1505.3,328.0,-0.7,1.9,2470.304,13.33,0.005,348.7
2020-05-24T04:58:03,42.805,6.029,-0.011,-0.004,-0.024,104.0,105.0,103.0,13.3,1505.3,327.6,-0.7,1.8,2470.328,13.33,0.011,250.0
2020-05-24T05:04:03,42.805,6.029,-0.022,-0.008,-0.021,105.0,106.0,102.0,13.4,1505.3,326.7,-0.7,1.8,2470.358,13.31,0.023,250.0
2020-05-24T05:07:03,42.805,6.029,-0.002,0.006,-0.019,104.0,107.0,102.0,13.4,1505.3,326.5,-0.7,1.8,2470.419,13.31,0.006,341.6
2020-05-24T05:10:03,42.805,6.029,-0.007,-0.012,0.009,106.0,105.0,102.0,13.4,1505.3,326.5,-0.7,1.8,2470.373,13.32,0.013,210.3
2020-05-24T05:13:03,42.805,6.029,-0.018,-0.025,-0.029,105.0,107.0,103.0,13.4,1505.3,328.6,-0.7,1.9,2470.361,13.32,0.03,215.8
2020-05-24T05:16:03,42.805,6.029,-0.007,-0.013,0.001,106.0,107.0,103.0,13.4,1505.3,326.1,-0.7,1.8,2470.359,13.32,0.014,208.3
2020-05-24T05:19:03,42.805,6.029,-0.017,-0.015,-0.003,106.0,107.0,101.0,13.3,1505.3,324.5,-0.7,1.8,2470.352,13.33,0.022,228.6
2020-05-24T05:22:03,42.805,6.029,0.004,0.007,-0.016,105.0,105.0,102.0,13.3,1505.3,326.1,-0.7,1.8,2470.356,13.33,0.008,29.7
2020-05-24T05:25:03,42.805,6.029,-0.014,-0.006,-0.011,104.0,107.0,101.0,13.3,1505.3,327.8,-0.7,1.8,2470.386,13.33,0.015,246.8
2020-05-24T05:28:03,42.805,6.029,-0.013,-0.007,0.001,104.0,107.0,104.0,13.4,1505.3,323.2,-0.7,1.8,2470.328,13.33,0.014,241.7
2020-05-24T05:31:03,42.805,6.029,-0.007,-0.003,-0.035,105.0,105.0,101.0,13.4,1505.3,326.6,-0.7,1.8,2470.341,13.33,0.007,246.8
2020-05-24T05:34:03,42.805,6.029,0.0,0.005,0.0,105.0,107.0,102.0,13.3,1505.3,324.8,-0.7,1.8,2470.316,13.33,0.005,0.0
2020-05-24T05:37:03,42.805,6.029,0.013,-0.001,-0.013,106.0,108.0,102.0,13.4,1505.3,327.5,-0.7,1.9,2470.354,13.33,0.013,94.4
2020-05-24T05:40:03,42.805,6.029,-0.009,0.0,-0.022,107.0,107.0,104.0,13.3,1505.3,324.9,-0.7,1.8,2470.365,13.33,0.009,270.0
2020-05-24T05:43:03,42.805,6.029,-0.011,-0.019,-0.004,106.0,107.0,104.0,13.4,1505.3,326.3,-0.7,1.8,2470.319,13.33,0.021,210.1
2020-05-24T05:46:03,42.805,6.029,-0.032,0.0,-0.025,106.0,108.0,104.0,13.3,1505.3,323.4,-0.7,1.8,2470.35,13.33,0.032,270.0
2020-05-24T05:49:03,42.805,6.029,0.003,-0.003,-0.01,107.0,106.0,103.0,13.4,1505.3,323.5,-0.7,1.9,2470.339,13.33,0.004,135.0
2020-05-24T05:52:03,42.805,6.029,-0.023,0.011,-0.007,106.0,107.0,103.0,13.3,1505.3,325.2,-0.7,1.8,2470.322,13.33,0.025,295.6
2020-05-24T05:55:03,42.805,6.029,-0.025,0.018,0.004,108.0,108.0,104.0,13.3,1505.3,325.8,-0.7,1.8,2470.351,13.33,0.03,305.8
2020-05-24T05:58:03,42.805,6.029,-0.015,0.0,-0.041,106.0,107.0,103.0,13.4,1505.3,323.2,-0.7,1.8,2470.359,13.33,0.015,270.0
2020-05-24T06:04:04,42.805,6.029,-0.026,0.006,-0.004,107.0,107.0,103.0,13.4,1505.3,324.2,-0.8,1.8,2470.402,13.31,0.026,283.0
2020-05-24T06:07:03,42.805,6.029,-0.049,-0.027,-0.038,107.0,108.0,103.0,13.4,1505.3,326.5,-0.7,1.8,2470.371,13.32,0.055,241.1
2020-05-24T06:10:03,42.805,6.029,-0.056,-0.003,-0.036,105.0,108.0,104.0,13.3,1505.3,323.2,-0.7,1.8,2470.425,13.32,0.056,266.9
2020-05-24T06:13:03,42.805,6.029,-0.011,0.003,-0.036,107.0,108.0,103.0,13.4,1505.3,323.0,-0.7,1.8,2470.392,13.33,0.011,285.3
2020-05-24T06:16:03,42.805,6.029,-0.012,0.024,-0.017,107.0,109.0,104.0,13.4,1505.3,324.8,-0.7,1.8,2470.413,13.33,0.026,333.4
2020-05-24T06:19:03,42.805,6.029,-0.031,0.008,-0.037,107.0,109.0,103.0,13.4,1505.3,326.3,-0.7,1.9,2470.403,13.33,0.032,284.5
2020-05-24T06:22:03,42.805,6.029,0.001,0.001,-0.008,108.0,107.0,104.0,13.4,1505.3,323.6,-0.7,1.8,2470.397,13.33,0.001,45.0
2020-05-24T06:25:03,42.805,6.029,-0.013,-0.011,0.02,106.0,108.0,103.0,13.3,1505.3,327.6,-0.7,1.8,2470.395,13.33,0.017,229.8
2020-05-24T06:28:03,42.805,6.029,-0.014,0.0,-0.034,107.0,109.0,103.0,13.4,1505.3,324.8,-0.7,1.8,2470.355,13.33,0.014,270.0
2020-05-24T06:31:03,42.805,6.029,-0.001,-0.002,-0.024,106.0,107.0,104.0,13.4,1505.3,323.6,-0.7,1.8,2470.412,13.33,0.002,206.6
2020-05-24T06:34:03,42.805,6.029,0.004,-0.002,0.004,108.0,107.0,105.0,13.4,1505.3,328.0,-0.7,1.8,2470.401,13.33,0.004,116.6
2020-05-24T06:37:03,42.805,6.029,-0.023,-0.004,-0.023,107.0,109.0,104.0,13.3,1505.3,326.6,-0.7,1.9,2470.359,13.33,0.023,260.1
2020-05-24T06:40:03,42.805,6.029,0.011,0.012,0.001,106.0,109.0,104.0,13.3,1505.3,325.3,-0.7,1.8,2470.392,13.33,0.016,42.5
2020-05-24T06:43:03,42.805,6.029,-0.056,-0.003,-0.072,107.0,108.0,104.0,13.4,1505.3,327.0,-0.7,1.9,2470.428,13.33,0.056,266.9
2020-05-24T06:46:03,42.805,6.029,0.02,0.009,0.006,108.0,108.0,103.0,13.4,1505.3,326.3,-0.7,1.8,2470.357,13.33,0.021,65.8
2020-05-24T06:49:03,42.805,6.029,0.01,0.008,-0.005,107.0,108.0,102.0,13.3,1505.3,324.0,-0.7,1.8,2470.407,13.33,0.012,51.3
2020-05-24T06:52:03,42.805,6.029,-0.032,0.007,-0.041,107.0,109.0,103.0,13.4,1505.4,326.8,-0.7,1.8,2470.408,13.34,0.032,282.3
2020-05-24T06:55:03,42.805,6.029,-0.021,-0.003,-0.027,106.0,108.0,104.0,13.3,1505.4,324.2,-0.7,1.8,2470.363,13.34,0.021,261.9
2020-05-24T06:58:03,42.805,6.029,0.005,0.003,-0.041,106.0,106.0,103.0,13.3,1505.4,326.9,-0.7,1.8,2470.393,13.34,0.005,59.0
2020-05-24T07:04:03,42.805,6.029,-0.018,0.005,0.003,107.0,106.0,104.0,13.4,1505.3,327.8,-0.7,1.8,2470.404,13.32,0.018,285.5
2020-05-24T07:07:03,42.805,6.029,-0.027,-0.016,-0.007,106.0,107.0,104.0,13.4,1505.3,327.2,-0.7,1.8,2470.427,13.32,0.031,239.3
2020-05-24T07:10:03,42.805,6.029,-0.037,0.0,-0.041,107.0,106.0,103.0,13.4,1505.3,324.7,-0.7,1.8,2470.407,13.33,0.037,270.0
2020-05-24T07:13:03,42.805,6.029,-0.023,-0.009,-0.023,107.0,108.0,103.0,13.4,1505.3,324.8,-0.7,1.8,2470.455,13.33,0.024,248.6
2020-05-24T07:16:03,42.805,6.029,-0.018,0.007,-0.03,107.0,107.0,105.0,13.3,1505.3,326.3,-0.7,1.8,2470.441,13.33,0.019,291.2
2020-05-24T07:19:03,42.805,6.029,-0.059,-0.001,-0.056,107.0,109.0,103.0,13.4,1505.3,325.6,-0.7,1.9,2470.39,13.33,0.059,269.0
2020-05-24T07:22:03,42.805,6.029,-0.038,0.0,-0.029,107.0,108.0,104.0,13.4,1505.3,323.9,-0.7,1.8,2470.436,13.33,0.038,270.0
2020-05-24T07:25:03,42.805,6.029,0.001,-0.001,0.005,106.0,109.0,105.0,13.4,1505.3,323.0,-0.7,1.8,2470.416,13.33,0.001,135.0
2020-05-24T07:28:03,42.805,6.029,-0.03,0.005,-0.067,106.0,108.0,104.0,13.4,1505.3,324.7,-0.7,1.8,2470.439,13.33,0.03,279.5
2020-05-24T07:31:03,42.805,6.029,0.031,0.008,0.017,108.0,109.0,103.0,13.4,1505.3,324.3,-0.7,1.8,2470.427,13.33,0.032,75.5
2020-05-24T07:34:03,42.805,6.029,-0.01,-0.006,-0.03,107.0,106.0,103.0,13.4,1505.3,327.8,-0.7,1.8,2470.403,13.33,0.011,239.0
2020-05-24T07:37:03,42.805,6.029,-0.025,-0.01,-0.022,107.0,107.0,104.0,13.4,1505.3,325.9,-0.7,1.8,2470.412,13.33,0.026,248.2
2020-05-24T07:40:03,42.805,6.029,0.009,-0.01,0.014,106.0,108.0,104.0,13.4,1505.3,324.5,-0.7,1.8,2470.4,13.33,0.013,138.0
2020-05-24T07:43:03,42.805,6.029,-0.01,0.007,0.0,108.0,107.0,104.0,13.3,1505.3,324.8,-0.7,1.8,2470.406,13.33,0.012,305.0
2020-05-24T07:46:03,42.805,6.029,-0.011,0.007,0.011,109.0,106.0,103.0,13.4,1505.4,324.9,-0.7,1.8,2470.411,13.34,0.013,302.5
2020-05-24T07:49:03,42.805,6.029,-0.002,-0.011,-0.04,107.0,109.0,103.0,13.4,1505.3,326.9,-0.7,1.8,2470.396,13.33,0.011,190.3
2020-05-24T07:52:03,42.805,6.029,0.005,-0.007,0.014,107.0,108.0,103.0,13.4,1505.3,325.4,-0.7,1.8,2470.429,13.33,0.008,144.5
2020-05-24T07:55:03,42.805,6.029,-0.004,0.011,-0.026,107.0,108.0,103.0,13.4,1505.4,325.3,-0.7,1.8,2470.392,13.34,0.011,340.0
2020-05-24T07:58:03,42.805,6.029,0.003,-0.02,-0.001,105.0,108.0,103.0,13.4,1505.4,324.4,-0.7,1.9,2470.406,13.34,0.02,171.5
2020-05-24T08:04:03,42.805,6.029,0.002,0.022,0.009,107.0,107.0,104.0,13.4,1505.3,326.0,-0.8,1.8,2470.477,13.32,0.022,5.2
2020-05-24T08:07:03,42.805,6.029,-0.008,0.004,-0.031,106.0,108.0,104.0,13.3,1505.3,325.0,-0.7,1.8,2470.42,13.32,0.008,296.6
2020-05-24T08:10:03,42.805,6.029,-0.062,0.006,-0.055,105.0,108.0,104.0,13.4,1505.3,326.8,-0.7,1.8,2470.392,13.33,0.062,275.5
2020-05-24T08:13:03,42.805,6.029,-0.022,0.011,-0.024,106.0,108.0,103.0,13.4,1505.3,326.5,-0.7,1.8,2470.475,13.33,0.024,296.6
2020-05-24T08:16:03,42.805,6.029,-0.032,0.004,-0.04,105.0,108.0,102.0,13.4,1505.3,326.9,-0.7,1.8,2470.466,13.33,0.032,277.1
2020-05-24T08:19:03,42.805,6.029,-0.064,0.014,-0.074,107.0,108.0,103.0,13.4,1505.3,325.7,-0.7,1.8,2470.389,13.33,0.065,282.3
2020-05-24T08:22:03,42.805,6.029,-0.01,-0.004,-0.026,106.0,108.0,102.0,13.4,1505.3,324.0,-0.7,1.8,2470.436,13.33,0.01,248.2
2020-05-24T08:25:03,42.805,6.029,-0.041,0.001,-0.064,107.0,108.0,104.0,13.4,1505.3,323.6,-0.7,1.8,2470.389,13.33,0.041,271.4
2020-05-24T08:28:03,42.805,6.029,-0.044,-0.005,-0.069,106.0,109.0,103.0,13.4,1505.3,326.0,-0.7,1.8,2470.397,13.33,0.044,263.5
2020-05-24T08:31:03,42.805,6.029,-0.001,0.015,0.002,107.0,109.0,103.0,13.4,1505.4,327.6,-0.7,1.8,2470.411,13.34,0.015,356.2
2020-05-24T08:34:03,42.805,6.029,-0.004,-0.004,-0.038,106.0,108.0,104.0,13.4,1505.4,325.7,-0.7,1.8,2470.43,13.34,0.005,225.0
2020-05-24T08:37:03,42.805,6.029,-0.03,0.008,-0.014,107.0,108.0,104.0,13.4,1505.4,324.9,-0.7,1.8,2470.38,13.34,0.031,284.9
2020-05-24T08:40:03,42.805,6.029,-0.012,0.011,0.0,107.0,108.0,104.0,13.3,1505.4,325.9,-0.7,1.8,2470.428,13.34,0.016,312.5
2020-05-24T08:43:03,42.805,6.029,-0.008,0.0,-0.037,107.0,109.0,104.0,13.3,1505.4,323.0,-0.7,1.9,2470.397,13.34,0.008,270.0
2020-05-24T08:46:03,42.805,6.029,-0.011,0.005,-0.011,107.0,108.0,104.0,13.3,1505.4,328.2,-0.7,1.8,2470.392,13.34,0.012,294.4
2020-05-24T08:49:03,42.805,6.029,0.002,0.008,-0.024,106.0,109.0,103.0,13.4,1505.4,324.4,-0.7,1.9,2470.384,13.34,0.008,14.0
2020-05-24T08:52:03,42.805,6.029,-0.001,-0.003,-0.022,107.0,108.0,104.0,13.3,1505.4,325.0,-0.7,1.8,2470.369,13.34,0.003,198.4
2020-05-24T08:55:03,42.805,6.029,0.002,-0.006,-0.024,107.0,108.0,104.0,13.4,1505.4,323.6,-0.7,1.8,2470.417,13.34,0.006,161.6
2020-05-24T08:58:03,42.805,6.029,-0.01,-0.003,0.002,106.0,108.0,104.0,13.3,1505.4,324.8,-0.7,1.8,2470.373,13.34,0.01,253.3
2020-05-24T09:04:03,42.805,6.029,0.0,0.011,-0.005,107.0,108.0,104.0,13.4,1505.3,327.9,-0.7,1.8,2470.414,13.32,0.011,0.0
2020-05-24T09:07:03,42.805,6.029,0.017,0.012,0.01,107.0,107.0,104.0,13.4,1505.3,324.0,-0.7,1.8,2470.369,13.33,0.02,54.8
2020-05-24T09:10:03,42.805,6.029,0.003,-0.002,-0.001,107.0,108.0,105.0,13.4,1505.3,323.4,-0.7,1.8,2470.354,13.33,0.003,123.7
2020-05-24T09:13:03,42.805,6.029,-0.005,0.013,-0.021,108.0,109.0,103.0,13.4,1505.4,324.2,-0.7,1.8,2470.385,13.34,0.013,339.0
2020-05-24T09:16:03,42.805,6.029,0.005,-0.006,-0.022,107.0,108.0,107.0,13.4,1505.4,326.0,-0.7,1.9,2470.447,13.34,0.007,140.2
2020-05-24T09:19:03,42.805,6.029,-0.008,0.019,0.009,107.0,110.0,105.0,13.4,1505.4,326.8,-0.7,1.8,2470.415,13.34,0.02,337.2
2020-05-24T09:22:03,42.805,6.029,0.013,0.025,-0.002,107.0,107.0,103.0,13.4,1505.4,328.6,-0.7,1.8,2470.368,13.34,0.028,27.5
2020-05-24T09:25:03,42.805,6.029,-0.005,0.033,0.014,107.0,108.0,103.0,13.4,1505.4,326.8,-0.7,1.8,2470.328,13.34,0.033,351.4
2020-05-24T09:28:03,42.805,6.029,-0.013,0.035,-0.015,107.0,107.0,104.0,13.4,1505.4,328.2,-0.7,1.9,2470.352,13.34,0.037,339.6
2020-05-24T09:31:03,42.805,6.029,0.009,0.016,0.012,107.0,107.0,103.0,13.4,1505.4,322.9,-0.7,1.8,2470.354,13.34,0.018,29.4
2020-05-24T09:34:03,42.805,6.029,0.001,-0.007,-0.024,107.0,108.0,104.0,13.4,1505.4,325.5,-0.7,1.8,2470.342,13.34,0.007,171.9
2020-05-24T09:37:03,42.805,6.029,-0.023,0.003,-0.002,109.0,108.0,105.0,13.4,1505.4,324.4,-0.7,1.8,2470.339,13.34,0.023,277.4
2020-05-24T09:40:03,42.805,6.029,-0.023,0.007,-0.021,108.0,111.0,105.0,13.3,1505.4,326.1,-0.7,1.8,2470.332,13.34,0.024,286.9
2020-05-24T09:43:03,42.805,6.029,-0.024,0.01,-0.012,107.0,109.0,104.0,13.4,1505.4,327.9,-0.7,1.8,2470.376,13.34,0.026,292.6
2020-05-24T09:46:03,42.805,6.029,-0.01,0.003,-0.037,108.0,109.0,103.0,13.4,1505.4,324.8,-0.7,1.8,2470.345,13.34,0.01,286.7
2020-05-24T09:49:03,42.805,6.029,-0.02,0.005,-0.001,107.0,110.0,104.0,13.3,1505.4,326.9,-0.7,1.8,2470.38,13.34,0.02,284.0
2020-05-24T09:52:03,42.805,6.029,-0.02,-0.013,-0.022,108.0,109.0,104.0,13.4,1505.4,323.7,-0.7,1.9,2470.322,13.34,0.023,237.0
2020-05-24T09:55:03,42.805,6.029,-0.026,0.021,-0.032,108.0,109.0,105.0,13.4,1505.4,328.5,-0.7,1.8,2470.314,13.34,0.033,308.9
2020-05-24T09:58:03,42.805,6.029,-0.014,0.013,-0.009,108.0,109.0,104.0,13.3,1505.4,326.1,-0.7,1.8,2470.372,13.34,0.019,312.9